| time (UTC) | temp F | wind direction | speed knots | gust knots | rain 1hr in | rain 24hr in | rain mn in | humidity % | barometer mb |
| 20260509001503 | 44 | 16 | 1.7 | 5.2 | 0.00 | 0.00 | 0.00 | 74 | 1023.5 |
| 20260509000004 | 44 | 20 | 3.5 | 6.1 | 0.00 | 0.00 | 0.00 | 73 | 1023.6 |
| 20260508231504 | 44 | 26 | 2.6 | 6.1 | 0.00 | 0.00 | 0.00 | 74 | 1023.8 |
| 20260508223003 | 44 | 30 | 4.3 | 6.1 | 0.00 | 0.00 | 0.00 | 73 | 1024.0 |
| 20260508221504 | 44 | 10 | 2.6 | 6.1 | 0.00 | 0.00 | 0.00 | 74 | 1024.0 |
| 20260508220004 | 44 | 16 | 2.6 | 5.2 | 0.00 | 0.00 | 0.00 | 73 | 1024.0 |
| 20260508214503 | 45 | 14 | 2.6 | 5.2 | 0.00 | 0.00 | 0.00 | 73 | 1024.1 |
| 20260508213004 | 45 | 22 | 2.6 | 5.2 | 0.00 | 0.00 | 0.00 | 73 | 1024.1 |
| 20260508210003 | 46 | 40 | 2.6 | 5.2 | 0.00 | 0.00 | 0.00 | 74 | 1024.0 |
| 20260508200004 | 46 | 23 | 2.6 | 6.1 | 0.00 | 0.00 | 0.00 | 80 | 1023.8 |
| 20260508194504 | 46 | 22 | 2.6 | 7.0 | 0.00 | 0.00 | 0.00 | 80 | 1023.8 |
| 20260508193005 | 46 | 31 | 3.5 | 7.0 | 0.00 | 0.00 | 0.00 | 79 | 1023.7 |
| 20260508184504 | 47 | 10 | 1.7 | 2.6 | 0.00 | 0.00 | 0.00 | 70 | 1023.2 |
| 20260508171504 | 52 | 79 | 2.6 | 6.1 | 0.00 | 0.00 | 0.00 | 53 | 1023.2 |
| 20260508170004 | 53 | 61 | 4.3 | 7.0 | 0.00 | 0.00 | 0.00 | 48 | 1023.2 |
| 20260508163005 | 54 | 48 | 3.5 | 10.4 | 0.00 | 0.00 | 0.00 | 32 | 1023.0 |
| 20260508161504 | 55 | 29 | 4.3 | 12.2 | 0.00 | 0.00 | 0.00 | 32 | 1023.1 |
| 20260508160004 | 55 | 46 | 4.3 | 10.4 | 0.00 | 0.00 | 0.00 | 31 | 1023.2 |
| 20260508153004 | 56 | 40 | 5.2 | 15.6 | 0.00 | 0.00 | 0.00 | 29 | 1023.2 |
| 20260508151503 | 56 | 37 | 7.8 | 14.8 | 0.00 | 0.00 | 0.00 | 31 | 1023.4 |
| 20260508150005 | 57 | 30 | 6.1 | 13.0 | 0.00 | 0.00 | 0.00 | 32 | 1023.6 |
| 20260508134504 | 57 | 38 | 6.1 | 14.8 | 0.00 | 0.00 | 0.00 | 29 | 1023.8 |
| 20260508133005 | 57 | 59 | 7.8 | 17.4 | 0.00 | 0.00 | 0.00 | 29 | 1023.8 |
| 20260508131503 | 57 | 49 | 8.7 | 13.0 | 0.00 | 0.00 | 0.00 | 29 | 1024.0 |
| 20260508130004 | 57 | 54 | 4.3 | 15.6 | 0.00 | 0.00 | 0.00 | 32 | 1024.0 |
| 20260508124503 | 58 | 21 | 7.8 | 14.8 | 0.00 | 0.00 | 0.00 | 29 | 1024.0 |
| 20260508123005 | 57 | 40 | 7.8 | 15.6 | 0.00 | 0.00 | 0.00 | 33 | 1024.0 |
| 20260508121504 | 56 | 64 | 5.2 | 15.6 | 0.00 | 0.00 | 0.00 | 36 | 1024.0 |
| 20260508120004 | 55 | 81 | 7.0 | 18.2 | 0.00 | 0.00 | 0.00 | 39 | 1024.0 |
| 20260508111505 | 57 | 30 | 7.8 | 14.8 | 0.00 | 0.00 | 0.00 | 34 | 1024.0 |
| 20260508110004 | 56 | 46 | 7.0 | 14.8 | 0.00 | 0.00 | 0.00 | 35 | 1024.0 |
| 20260508100005 | 56 | 80 | 5.2 | 14.8 | 0.00 | 0.00 | 0.00 | 35 | 1023.9 |
| 20260508094504 | 56 | 83 | 6.1 | 13.0 | 0.00 | 0.00 | 0.00 | 34 | 1023.9 |
| 20260508091504 | 57 | 82 | 7.0 | 13.0 | 0.00 | 0.00 | 0.00 | 36 | 1023.7 |
| 20260508090004 | 56 | 76 | 8.7 | 13.0 | 0.00 | 0.00 | 0.00 | 37 | 1023.7 |
| 20260508084504 | 56 | 113 | 7.0 | 13.0 | 0.00 | 0.00 | 0.00 | 38 | 1023.7 |
| 20260508080004 | 55 | 55 | 7.8 | 13.9 | 0.00 | 0.00 | 0.00 | 33 | 1023.5 |
| 20260508074504 | 55 | 72 | 4.3 | 11.3 | 0.00 | 0.00 | 0.00 | 34 | 1023.5 |
| 20260508043005 | 44 | 60 | 2.6 | 4.3 | 0.00 | 0.00 | 0.00 | 79 | 1022.1 |
| 20260508040004 | 39 | 79 | 1.7 | 2.6 | 0.00 | 0.00 | 0.00 | 86 | 1021.7 |
| 20260508033005 | 35 | 79 | 0.0 | 0.9 | 0.00 | 0.00 | 0.00 | 86 | 1021.7 |
| 20260508031505 | 34 | 79 | 0.0 | 1.7 | 0.00 | 0.00 | 0.00 | 85 | 1021.5 |
| 20260508021504 | 34 | 78 | 0.0 | 1.7 | 0.00 | 0.00 | 0.00 | 84 | 1021.1 |
| 20260508020004 | 35 | 74 | 0.0 | 2.6 | 0.00 | 0.00 | 0.00 | 84 | 1020.9 |
| 20260508014504 | 35 | 74 | 0.9 | 2.6 | 0.00 | 0.00 | 0.00 | 86 | 1020.4 |
| 20260508013005 | 35 | 83 | 0.9 | 2.6 | 0.00 | 0.00 | 0.00 | 87 | 1020.4 |
| 20260508010004 | 34 | 92 | 0.9 | 4.3 | 0.00 | 0.00 | 0.00 | 88 | 1020.4 |
| 20260508003005 | 34 | 135 | 0.0 | 0.9 | 0.00 | 0.00 | 0.00 | 87 | 1020.2 |